DECAYED

CZ-6A DEB, 61374 (Decayed)

Orbit data source: Space-Track

CZ-6A DEB, 61374 was space debris in LEO originally from a launch on Tue, 06 Aug 2024 UTC launched from the Taiyaun Space Center, China (TSC). Debris objects in space refer to the collection of defunct objects orbiting the Earth. Examples of debris include non-operational satellites, rocket bodies, and fragments generated from explosions, collisions, or faulty payload assembly.

Not visible in the next 10 days
Identifier
61374, 2024-140WP
Orbit
Decayed
Country
Flag of CNCN / PRC
Related business
Manufacturer
SAST
Mission
Decayed spacecraft
Bus & Motor
Unknown
Mass
Unknown
Launch date (UTC)
2024-08-06 (1 year ago)
Launch vehicle
Unknown
Launch site
Taiyaun Space Center, China (TSC)
Object type
Payload
Rocket body
Debris
Shape & HBR
Unknown shape, 0.1 m
Radar Cross Section
Small (<0.1 m²)

Expand to show TLE details & history
Last TLE update: 11 months ago

TLE from 11 months ago
0 CZ-6A DEB
1 61374U 24140WP  25014.83126944  .10150647  00000-0  90643-1 0  9998
2 61374  88.8642 329.6563 0045527 136.1160 224.3740 15.62372963 19482
Epoch: 2025-01-14T19:57Z
TLE epoch observation values (Epoch: 2025-01-14T19:57:01.679Z)
Latitude
-0.00003°
Longitude
-84.13302°
Altitude
406.127 km
Speed
7.654 km/s
True Right ascension
21h 58m 37s
True Declination
0° 00' 00"
Sunlit
Object was in daylight at epoch
Visualization orbit readout
Latitude
Unknown
Longitude
Unknown
Altitude
Unknown
Speed
Unknown
Apparent Right ascension
Unknown
Apparent Declination
Unknown
Sunlit
N/A
Visualization observer readout
Local Sidereal Time
08:51:12
Azimuth
Unknown
Elevation
Unknown
Doppler factor
Unknown
Orbital elements
Apogee altitude
408.312 km
Perigee altitude
346.799 km
Semi-major axis
6,755.693 km
Eccentricity
0.00455
Inclination
88.8642°
RAAN
329.6563°
Arg. of periapsis
136.116°
True anomaly
224.01063°
Mean anomaly
224.374°
Eccentric anomaly
224.19217°
Mean motion
3.90875 °/min
Orbital period
92.1 mins
BSTAR
0.090643
Loading maneuver chart data...
Computing Atmospheric mass density...
Loading historical data...
Loading historical data...
Loading historical data...
Loading historical data...
Loading historical data...
Loading historical data...
Loading historical data...

Documentation

Showing up to 5 results
|